loading
DOY 173 | 2024-06-21T03:40:32Z

THOR ABLESTAR DEB, 126

Orbit data source: Space-Track

THOR ABLESTAR DEB, 126 is space debris in LEO originally from a launch on Thu, 29 Jun 1961 UTC launched from the Air Force Eastern Test Range (AFETR). Debris objects in space refer to the collection of defunct objects orbiting the Earth. Examples of debris include non-operational satellites, rocket bodies, and fragments generated from explosions, collisions, or faulty payload assembly.

Loading next visibility...
Loading greatness...
THOR ABLESTAR DEB details
NORAD ID126
COSPAR ID
1961-015L
Orbit
LEO
Last TLE update1 day ago
Origin
Flag of USUSAF SSD (US)
ManufacturerUnknown
BusUnknown
MotorUnknown
MassWet unknown, Dry mass unknown
Launch date (UTC)
1961-06-29 (63 years ago)
Launch vehicleUnknown
Launch site
Air Force Eastern Test Range (AFETR)
Object type
Payload
Rocket body
Debris
Radar Cross Section0.36 m², Medium (>0.1 m² and < 1m²)
Predictive object data (real-time)
Latitude-59.86067°
Longitude-53.20284°
Altitude810.678 km
Speed7.431 km/s
Apparent Right ascension05h 46m 57s
Apparent Declination-74° 43' 55"
Sunlit
Object is in daylight
Predictive observer data (real-time)
Local Sidereal Time14:39:24
Azimuth197.112° SSW
Elevation-49.205°
Doppler factor1
Orbital elements
Apogee796.056 km
Perigee716.62 km
Semi-major axis7,134.475 km
Eccentricity0.0055671
Inclination66.71°
RAAN236.2247°
Arg. of periapsis71.158°
True anomaly288.95246°
Mean anomaly289.555°
Mean motion3.60164 °/min
BSTAR0.00046352
Period99.95 mins
Definitive object data (Epoch: 2024-06-19T22:00:01.997Z)
Latitude
Longitude-2.39984°
Altitude746.988 km
Speed7.488 km/s
True Right ascension15h 44m 53s
True Declination0° 00' 00"
Sunlit
Object was in full shadow at TLE epoch
TLE from 1 day ago
0 THOR ABLESTAR DEB
1 00126U 61015L   24171.91668979  .00001406  00000-0  46352-3 0  9996
2 00126  66.7100 236.2247 0055671  71.1580 289.5550 14.40159297259667
Epoch: 2024-06-19T22:00Z
No data available

THOR ABLESTAR DEB Visibility forecast

Observer location: 39.9160978°, -105.1181434, 0m alt.

THOR ABLESTAR DEB is not visible in the next 10 days
Span
Click to sort rows by Start time (UTC) header in descending order
Start Az.
Max El. time (UTC)
Max El. Az.
Max El.
End time (UTC)
End Az.